Owensboro, KY

8:11 PM CDT on July 23, 2017 (GMT -0500)
Owensboro-Daviess County

Weather History for KOWB - July, 2014

Change the Weather History Date:

Monday, July 7, 2014

  Actual Average Record
Temperature  
Mean Temperature 76 °F -  
Max Temperature 90 °F 90 °F 114 °F (1998)
Min Temperature 63 °F 66 °F 53 °F (1972)
Cooling Degree Days 12    
Growing Degree Days 26 (Base 50)    
Moisture  
Dew Point 67 °F    
Average Humidity 76    
Maximum Humidity 90    
Minimum Humidity 55    
Precipitation  
Precipitation 0.12 in - - ()
Sea Level Pressure  
Sea Level Pressure 29.90 in    
Wind  
Wind Speed 10 mph (SW)    
Max Wind Speed 36 mph    
Max Gust Speed 51 mph    
Visibility 9 miles    
Events Rain , Thunderstorm    
Averages and records for this station are not official NWS values.
T = Trace of Precipitation, MM = Missing Value Source: NWS Daily Summary

Daily Weather History Graph

Daily Weather History Graph

Search for Another Location

Airport or City:

Trip Planner

Search our weather history database for the weather conditions in past years. The results will help you decide how hot, cold, wet, or windy it might be!

Date:

Astronomy

Jul. 07, 2014 Rise Set
Actual Time 5:33 AM CDT 8:13 PM CDT
Civil Twilight 5:02 AM CDT 8:44 PM CDT
Nautical Twilight 4:24 AM CDT 9:22 PM CDT
Astronomical Twilight 3:40 AM CDT 10:05 PM CDT
Moon 3:18 PM CDT (7/7) 1:23 AM CDT (7/7)
Length of Visible Light 15h 41m
Length of Day
14h 39m
Waxing Gibbous, 72% of the Moon is Illuminated
Jul 7
Waxing Gibbous
Jul 12
Full
Jul 18
Last Quarter
Jul 26
New
Aug 3
First Quarter

Hourly Weather History & Observations

Time (CDT) Temp. Heat Index Dew Point Humidity Pressure Visibility Wind Dir Wind Speed Gust Speed Precip Events Conditions
12:56 AM 66.9 °F - 63.0 °F 87% 29.96 in 10.0 mi SSW 6.9 mph - N/A   Clear
1:56 AM 66.9 °F - 63.0 °F 87% 29.95 in 10.0 mi South 3.5 mph - N/A   Clear
2:56 AM 65.8 °F - 61.9 °F 87% 29.93 in 10.0 mi SSW 4.6 mph - N/A   Clear
3:56 AM 64.9 °F - 61.9 °F 90% 29.92 in 10.0 mi Calm Calm - N/A   Clear
4:56 AM 63.9 °F - 61.0 °F 90% 29.92 in 10.0 mi SSW 5.8 mph - N/A   Clear
5:56 AM 65.8 °F - 61.9 °F 87% 29.93 in 10.0 mi South 5.8 mph - N/A   Clear
6:56 AM 68.9 °F - 63.9 °F 84% 29.93 in 10.0 mi South 5.8 mph - N/A   Clear
7:56 AM 72.9 °F - 63.9 °F 73% 29.94 in 10.0 mi South 10.4 mph - N/A   Scattered Clouds
8:56 AM 77.9 °F - 66.9 °F 69% 29.94 in 10.0 mi SSW 13.8 mph - 0.00 in   Scattered Clouds
9:56 AM 81.9 °F 85.6 °F 70.0 °F 67% 29.93 in 10.0 mi SW 12.7 mph - N/A   Partly Cloudy
10:56 AM 83.8 °F 88.6 °F 70.9 °F 65% 29.91 in 10.0 mi SSW 12.7 mph - 0.00 in   Mostly Cloudy
11:56 AM 86.0 °F 92.2 °F 72.0 °F 63% 29.89 in 10.0 mi SSW 13.8 mph - N/A   Mostly Cloudy
1:56 PM 90.0 °F 96.9 °F 72.0 °F 55% 29.86 in 10.0 mi SW 18.4 mph - N/A   Partly Cloudy
2:56 PM 88.9 °F 96.6 °F 72.9 °F 59% 29.83 in 10.0 mi SW 17.3 mph 25.3 mph N/A   Scattered Clouds
3:56 PM 88.9 °F 95.6 °F 72.0 °F 57% 29.86 in 10.0 mi WSW 17.3 mph - N/A   Mostly Cloudy
4:56 PM 88.0 °F 94.7 °F 72.0 °F 59% 29.85 in 10.0 mi WSW 17.3 mph 24.2 mph N/A   Mostly Cloudy
5:39 PM 84.2 °F 86.6 °F 66.2 °F 55% 29.93 in 5.0 mi WNW 35.7 mph 50.6 mph 0.00 in Rain , Thunderstorm Thunderstorms and Rain
5:49 PM 73.4 °F - 66.2 °F 78% 29.92 in 5.0 mi NW 17.3 mph 48.3 mph 0.07 in Rain , Thunderstorm Thunderstorms and Rain
5:56 PM 70.0 °F - 64.9 °F 84% 29.90 in 5.0 mi WNW 15.0 mph 25.3 mph 0.10 in Rain , Thunderstorm Thunderstorms and Rain
6:17 PM 71.6 °F - 64.4 °F 78% 29.90 in 7.0 mi West 20.7 mph 27.6 mph 0.02 in Rain , Thunderstorm Light Thunderstorms and Rain
6:56 PM 72.0 °F - 64.9 °F 78% 29.89 in 7.0 mi West 13.8 mph - 0.02 in Rain , Thunderstorm Light Thunderstorms and Rain
7:56 PM 70.9 °F - 65.8 °F 84% 29.84 in 10.0 mi SE 5.8 mph - 0.00 in Thunderstorm Clear
8:56 PM 72.9 °F - 68.0 °F 85% 29.84 in 10.0 mi WNW 5.8 mph - N/A   Clear
9:56 PM 72.9 °F - 68.9 °F 87% 29.91 in 10.0 mi South 5.8 mph - N/A   Clear
10:56 PM 72.9 °F - 68.9 °F 87% 29.88 in 10.0 mi South 9.2 mph - N/A   Clear